Location: Mentone
(34.5413°N, 85.5351°W)
Time: 21:57:22
(UTC-05:00)

S-56A Canister/Altair - Visible Passes

Search period start: 20 April 2015 00:00
Search period end: 30 April 2015 00:00
Orbit: 635 x 2500 km, 38.9° (Epoch: 16 April)

Date Brightness Start Highest point End Pass type
(mag) Time Alt. Az. Time Alt. Az. Time Alt. Az.
20 Apr 10.8 19:33:03 10° WNW 19:44:37 40° SW 19:57:55 10° SSE visible
20 Apr 11.6 21:45:50 10° WSW 21:50:26 11° SW 21:53:29 10° SW visible
21 Apr 11.6 21:10:42 10° WSW 21:17:31 14° SW 21:23:14 10° SSW visible
22 Apr 11.6 20:36:37 10° W 20:44:34 17° SW 20:51:58 10° SSW visible
23 Apr 11.5 20:03:02 10° W 20:11:38 19° SW 20:20:14 10° S visible
24 Apr 11.5 19:29:47 10° W 19:38:43 22° SW 19:48:11 10° S visible
